This is the latest recevied weather packets stored in our database for station/object KB5DPX. If no packets are shown the sender has not sent any weather packets the latest 10 day(s).
| Time | Temp. | Humidity | Pressure | Rain* | Wind** | Luminosity | Snow |
|---|---|---|---|---|---|---|---|
| 1788562124 | 19.44° C | 84% | 1015.8 hPa | 0 mm | - | 51 W/m² | - |
| 1788561820 | 19.44° C | 84% | 1015.8 hPa | 0 mm | - | 54 W/m² | - |
| 1788561507 | 19.44° C | 84% | 1015.8 hPa | 0 mm | - | 56 W/m² | - |
| 1788561221 | 19.44° C | 83% | 1015.9 hPa | 0 mm | - | 35 W/m² | - |
| 1788560903 | 18.89° C | 83% | 1015.8 hPa | 0 mm | - | 44 W/m² | - |
| 1788560616 | 18.89° C | 83% | 1015.8 hPa | 0 mm | - | 39 W/m² | - |
| 1788560302 | 18.89° C | 82% | 1015.8 hPa | 0 mm | - | 40 W/m² | - |
| 1788560011 | 18.89° C | 82% | 1015.9 hPa | 0 mm | - | 42 W/m² | - |
| 1788559698 | 19.44° C | 81% | 1015.8 hPa | 0 mm | - | 28 W/m² | - |
| 1788559412 | 19.44° C | 81% | 1015.9 hPa | 0 mm | - | 25 W/m² | - |
| 1788559117 | 19.44° C | 81% | 1015.8 hPa | 0 mm | - | 35 W/m² | - |
| 1788558824 | 19.44° C | 81% | 1015.6 hPa | 0 mm | - | 51 W/m² | - |
| 1788558510 | 19.44° C | 82% | 1015.6 hPa | 0 mm | - | 56 W/m² | - |
| 1788558220 | 19.44° C | 83% | 1015.6 hPa | 0 mm | - | 81 W/m² | - |
| 1788557905 | 19.44° C | 83% | 1015.7 hPa | 0 mm | - | 95 W/m² | - |
| 1788557615 | 19.44° C | 84% | 1015.8 hPa | 0 mm | - | 69 W/m² | - |
| 1788557300 | 19.44° C | 84% | 1015.8 hPa | 0 mm | - | 51 W/m² | - |
| 1788557014 | 19.44° C | 84% | 1016 hPa | 0 mm | - | 44 W/m² | - |
| 1788556716 | 19.44° C | 84% | 1015.9 hPa | 0 mm | - | 39 W/m² | - |
| 1788556116 | 19.44° C | 81% | 1015.8 hPa | 0 mm | - | 54 W/m² | - |
| 1788555800 | 19.44° C | 81% | 1015.9 hPa | 0 mm | - | 81 W/m² | - |
| 1788555512 | 19.44° C | 81% | 1015.9 hPa | 0 mm | - | 120 W/m² | - |
| 1788555218 | 19.44° C | 81% | 1015.9 hPa | 0 mm | - | 79 W/m² | - |
| 1788554924 | 19.44° C | 81% | 1015.9 hPa | 0 mm | - | 72 W/m² | - |
| 1788554608 | 19.44° C | 81% | 1015.9 hPa | 0 mm | - | 76 W/m² | - |
* Rain latest hour (hover to see other rain measurements)
** Current wind speed in m/s (hover to see current wind gust speed)